Chhaensa, India

5:39 PM IST on September 21, 2017 (GMT +0530)
New Delhi - GK2 | | Change Station

Elev 810 ft 28.53 °N, 77.24 °E | Updated 4 seconds ago

Overcast
Overcast
86.4 °F
Feels Like 102 °F
N
6.0
Wind Variable Wind from SSE
Gusts 9.0 mph

Today
High -- | Low -- °F
--% Chance of Precip.
Yesterday
High -- | Low -- °F
Precip. -- in
Pressure 29.59 in
Visibility 2.5 miles
Clouds Scattered Clouds 4000 ft
Few 4000 ft
Mostly Cloudy 10000 ft
Heat Index 102 °F
Dew Point 80 °F
Humidity 81%
Rainfall 0.00 in
Snow Depth Not available.
6:08 AM 6:18 PM
New Moon, 2% visible
METAR VIDP 211130Z 11004KT 4000 HZ SCT040 FEW040TCU BKN100 34/23 Q1002 NOSIG
Pressure 29.59 in
Visibility 2.5 miles
Clouds Scattered Clouds 4000 ft
Few 4000 ft
Mostly Cloudy 10000 ft
Heat Index 102 °F
Dew Point 80 °F
Humidity 81%
Rainfall 0.00 in
Snow Depth Not available.
6:08 AM 6:18 PM
New Moon, 2% visible
METAR VIDP 211130Z 11004KT 4000 HZ SCT040 FEW040TCU BKN100 34/23 Q1002 NOSIG

Get Severe Weather Alerts

Thanks for signing up!

Be on the lookout for a verification email in your inbox.

You'll start receiving the daily forecast at 6 AM.

×

10-Day Weather Forecast

No radar image for this location.
×

Almanac

Astronomy

Sep. 21, 2017 Rise Set
Actual Time
Civil Twilight
Nautical Twilight
Astronomical Twilight
Moon
Length of Visible Light
Length of Day
Tomorrow will be .
, % of the Moon is Illuminated

Today's Extremes

Country Highs Country Lows

Community

WunderPhotos

Category 6

Welcome to Category 6. This is the collective home for Weather Underground's featured writeups by Dr. Jeff Masters (right), Bob Henson (left), Chris Burt, and other regular contributors.

Nearby

Air Quality

  Air Quality AQ Index Pollutant
Not available.

Snow Depth

Station Depth Elevation

Earthquake Activity

City Distance Mag. Time & Date
Minimum magnitude displayed is 2.5.

Coastal Water Temperatures

Place Temperature

Stations

Nearby Weather Stations

Station Location Temp. Windchill Dew Point Humidity Wind Precip. Elev Updated Type